TimeCDT,TemperatureF,Dew PointF,Humidity,Sea Level PressureIn,VisibilityMPH,Wind Direction,Wind SpeedMPH,Gust SpeedMPH,PrecipitationIn,Events,Conditions,WindDirDegrees,DateUTC
12:29 AM,50.0,48.2,94,29.91,10.0,NW,4.6,-,N/A,,Partly Cloudy,310,2012-09-09 05:29:00
12:54 AM,50.0,48.0,93,29.93,10.0,NNW,6.9,-,N/A,,Clear,330,2012-09-09 05:54:00
1:01 AM,50.0,48.2,94,29.91,10.0,NNW,5.8,-,N/A,,Partly Cloudy,330,2012-09-09 06:01:00
1:54 AM,46.9,46.0,97,29.94,9.0,Calm,Calm,-,N/A,,Clear,0,2012-09-09 06:54:00
2:03 AM,46.4,46.4,100,29.92,5.0,NNW,4.6,-,N/A,,Partly Cloudy,340,2012-09-09 07:03:00
2:24 AM,48.2,46.4,93,29.93,10.0,NNW,3.5,-,N/A,,Mostly Cloudy,340,2012-09-09 07:24:00
2:54 AM,50.0,48.9,96,29.94,9.0,NW,3.5,-,N/A,,Overcast,320,2012-09-09 07:54:00
3:18 AM,50.0,48.2,94,29.94,1.8,NNW,5.8,-,N/A,,Overcast,330,2012-09-09 08:18:00
3:35 AM,50.0,48.2,94,29.95,2.0,NW,5.8,-,N/A,,Overcast,320,2012-09-09 08:35:00
3:45 AM,50.0,48.2,94,29.95,4.0,NW,5.8,-,N/A,,Overcast,310,2012-09-09 08:45:00
3:54 AM,48.9,48.0,97,29.96,3.0,NW,3.5,-,N/A,,Overcast,310,2012-09-09 08:54:00
4:24 AM,48.2,46.4,93,29.96,10.0,Calm,Calm,-,N/A,,Scattered Clouds,0,2012-09-09 09:24:00
4:54 AM,46.9,46.0,97,29.99,10.0,NW,3.5,-,N/A,,Clear,320,2012-09-09 09:54:00
5:14 AM,46.4,46.4,100,29.98,2.0,Calm,Calm,-,N/A,,Clear,0,2012-09-09 10:14:00
5:22 AM,46.4,46.4,100,29.98,10.0,NNW,3.5,-,N/A,,Clear,330,2012-09-09 10:22:00
5:54 AM,46.0,44.1,93,30.01,10.0,NNW,4.6,-,N/A,,Clear,330,2012-09-09 10:54:00
6:39 AM,44.6,44.6,100,30.01,1.2,Calm,Calm,-,N/A,,Clear,0,2012-09-09 11:39:00
6:47 AM,44.6,44.6,100,30.01,0.5,Calm,Calm,-,N/A,Fog,Fog,0,2012-09-09 11:47:00
6:54 AM,44.1,44.1,100,30.04,0.5,Calm,Calm,-,N/A,Fog,Fog,0,2012-09-09 11:54:00
7:16 AM,46.4,46.4,100,30.03,2.5,Calm,Calm,-,N/A,,Clear,0,2012-09-09 12:16:00
7:23 AM,48.2,46.4,93,30.03,10.0,Calm,Calm,-,N/A,,Clear,0,2012-09-09 12:23:00
7:54 AM,51.1,48.9,92,30.06,10.0,Calm,Calm,-,N/A,,Clear,0,2012-09-09 12:54:00
8:54 AM,57.0,52.0,83,30.06,10.0,NW,5.8,-,N/A,,Clear,320,2012-09-09 13:54:00
9:54 AM,62.1,52.0,70,30.08,10.0,NW,10.4,-,N/A,,Clear,320,2012-09-09 14:54:00
11:54 AM,66.9,46.0,47,30.09,10.0,NNW,10.4,-,N/A,,Scattered Clouds,330,2012-09-09 16:54:00
12:54 PM,66.0,46.0,48,30.09,10.0,NNW,11.5,-,N/A,,Mostly Cloudy,340,2012-09-09 17:54:00
1:54 PM,69.1,45.0,42,30.08,10.0,NNW,9.2,18.4,N/A,,Clear,330,2012-09-09 18:54:00
2:54 PM,66.9,46.0,47,30.08,10.0,NW,12.7,20.7,N/A,,Mostly Cloudy,320,2012-09-09 19:54:00
4:54 PM,70.0,43.0,38,30.09,10.0,NNW,12.7,-,N/A,,Scattered Clouds,340,2012-09-09 21:54:00
5:54 PM,66.9,42.1,40,30.11,10.0,NW,12.7,-,N/A,,Partly Cloudy,320,2012-09-09 22:54:00
6:54 PM,63.0,44.1,50,30.12,10.0,NW,6.9,-,N/A,,Clear,320,2012-09-09 23:54:00
7:54 PM,55.9,44.1,64,30.12,10.0,North,3.5,-,N/A,,Clear,350,2012-09-10 00:54:00
8:54 PM,51.1,44.1,77,30.14,10.0,Calm,Calm,-,N/A,,Clear,0,2012-09-10 01:54:00
9:54 PM,48.9,44.1,83,30.14,10.0,Calm,Calm,-,N/A,,Clear,0,2012-09-10 02:54:00
10:54 PM,46.9,43.0,86,30.14,10.0,Calm,Calm,-,N/A,,Clear,0,2012-09-10 03:54:00
11:54 PM,45.0,43.0,93,30.14,10.0,Calm,Calm,-,N/A,,Clear,0,2012-09-10 04:54:00